{"data":{"norad_id":43107,"intl_designator":"2018-003A","name":"BEIDOU-3 M7 (C27)","alt_names":[],"object_type":"PAYLOAD","status":"ACTIVE","operator":null,"country":"PRC","launch_date":"2018-01-11","launch_site_code":"XICLF","launch_vehicle":null,"mission":null,"orbit_class":"UNKNOWN","rcs_meters":null,"size_class":null,"mass_kg":null,"dimensions":null,"purposes":["nav"],"wikipedia_slug":null,"has_3d_model":false,"image_url":null,"decayed_at":null,"tle_current":{"epoch":"2026-09-18T18:45:31.594752Z","epoch_age_seconds":162994,"freshness":"FRESH","line1":"1 43107U 18003A   26261.78161568 -.00000035  00000+0  00000+0 0  9993","line2":"2 43107  54.2411 299.0431 0003125 103.1957 256.8981  1.86228337 59091","mean_motion":1.86228337,"eccentricity":0.0003125,"inclination_deg":54.2411,"raan_deg":299.0431,"arg_perigee_deg":103.1957,"mean_anomaly_deg":256.8981,"bstar":0,"rev_number":5909,"period_min":773.2442995504,"perigee_km":21519.596828672,"apogee_km":21537.038362794,"semimajor_km":27906.454595733,"source":"CELESTRAK","updated_at":"2026-09-20T09:00:46.675344Z"}}}